Regional Weather Roundup
Issued by NWS Albany, NY

Home | Current Version | Previous Version | Text Only | Print | Product List | Glossary On
Versions: 1 2 3 4 5 6 7 8 9 10 11 12 13 14 15 16 17 18 19 20 21 22 23 24 25 26 27 28 29 30 31 32 33 34 35 36 37 38 39 40 41 42 43 44 45 46 47 48 49 50
000
ASUS41 KALY 242310
RWRALY

NEW YORK STATE HOURLY WEATHER ROUNDUP
NATIONAL WEATHER SERVICE ALBANY NY
600 PM EST FRI NOV 24 2017

NOTE: "FAIR" INDICATES FEW OR NO CLOUDS BELOW 12,000 FEET WITH NO
SIGNIFICANT WEATHER AND/OR NO OBSTRUCTIONS TO VISIBILITY.

NYZ032-033-038>043-046>054-057>066-NYZ062>081-082-084-250000-
EAST


CITY           SKY/WX    TMP DP  RH WIND       PRES   REMARKS
ALBANY         PTCLDY    45  25  45 S9        29.88R
GLENS FALLS    CLEAR     32  25  75 CALM      29.86R
POUGHKEEPSIE   CLEAR     45  22  40 SE3       29.92S
NEWBURGH       CLEAR     45  25  45 VRB3      29.94R
MONTGOMERY     CLEAR     37  25  61 SW3       29.91S
WHITE PLAINS   CLEAR     42  27  55 S5        29.95R
ISLIP          CLEAR     43  32  65 SW6       29.98R
NEW YORK CITY  PTCLDY    47  31  53 S7        29.97R
CENTRAL PARK   CLEAR     47  27  45 VRB3      29.99R
$$

NYZ005>009-017-018-044>046-055-056-250000-
CENTRAL


CITY           SKY/WX    TMP DP  RH WIND       PRES   REMARKS
FULTON         CLEAR     46  27  47 S5        29.75F
SYRACUSE       PTCLDY    43  25  49 SE7       29.77F
ROME           CLEAR     43  25  49 E6        29.82F
ELMIRA         CLEAR     41  25  53 CALM      29.81S
BINGHAMTON     CLEAR     42  20  41 S8        29.82S
MONTICELLO     CLEAR     39  23  52 S6        29.90R WCI  35
$$

NYZ026>034-041>043-087-250000-
NORTH


CITY           SKY/WX    TMP DP  RH WIND       PRES   REMARKS
WATERTOWN      CLEAR     47  27  45 S9        29.72F
FORT DRUM      NOT AVBL
OGDENSBURG     FAIR      44  29  55 S8        29.69S
MASSENA        PTCLDY    46  29  51 S13       29.70F
SARANAC LAKE   CLEAR     39  27  62 SW13      29.71S WCI  31
PLATTSBURGH    CLOUDY    40  27  59 S6        29.74F
$$

NYZ001>004-010>016-019>021-085-250000-
WEST


CITY           SKY/WX    TMP DP  RH WIND       PRES   REMARKS
NIAGARA FALLS  PTCLDY    50  29  44 S16       29.68F
BUFFALO        MOCLDY    48  27  44 S16       29.70F
DUNKIRK        CLEAR     48  26  42 S10G21    29.72F
JAMESTOWN      CLEAR     43  23  45 S12       29.75F
WELLSVILLE     CLOUDY    48  21  34 S13G20    29.78F
ROCHESTER      MOCLDY    49  29  46 S8        29.72F
PENN YAN       CLEAR     48  25  40 S9        29.76F
$$

             KEY
       WCI = WIND CHILL INDEX
       VSB = VISIBILITY
       HX  = HEAT INDEX
$$



USA.gov is the U.S. government's official web portal to all federal, state and local government web resources and services.